Flag for U.S.A. Weather past 2 weeks in Pomona, California, U.S.A.

Now
63 °F

Overcast.


Feels Like: 63 °F
Forecast: 63 / 84 °F
Wind: N/A

Location: Chino Airport

Current Time: Aug 20, 2014 at 6:10:19 AM

Latest Report: Aug 20, 2014 at 4:53 AM


Visibility: N/A

Pressure: 29.90 "Hg

Humidity: 90%

Dew point: 60 °F

Location of PomonaLocation

Historic Weather in Pomona — Graph

°F

Pomona temperature yesterday

Maximum temperature yesterday: 84 °F (at 1:53 PM)
Minimum temperature yesterday: 64 °F (at 11:53 PM)
Average temperature yesterday: 74 °F

Past Weeks' High & Low Weather Summary

 TemperatureHumidityPressure
High99 °F (Aug 15, 3:58 PM)100% (Aug 6, 3:53 AM)30.08 "Hg (Aug 6, 3:53 AM)
Low55 °F (Aug 5, 5:53 AM)15% (Aug 16, 6:53 PM)29.78 "Hg (Aug 18, 6:53 PM)
Average75 °F62%29.94 "Hg
* Reported Aug 5 3:53 AM — Aug 20 3:53 AM, Pomona, Weather by CustomWeather, © 2014

Note: Actual official high and low records may vary slightly from our data, if they occured in-between our weather recording intervals... More about our weather records

Advertising

Pomona weather history for previous 24 hours

 ConditionsComfort  
Time TempWeatherWind HumidityBarometerVisibility
3:53 AM
Aug 20
62 °FOvercast.N/A90%29.90 "HgN/A
2:53 AM62 °FClear.N/A86%29.90 "HgN/A
1:53 AM62 °FClear.N/A86%29.89 "HgN/A
12:53 AM63 °FPassing clouds.N/A87%29.89 "HgN/A
11:53 PM
Aug 19
64 °FOvercast.N/A84%29.89 "HgN/A
10:53 PM65 °FClear.N/A85%29.89 "HgN/A
9:53 PM66 °FClear.N/A81%29.88 "HgN/A
8:53 PM67 °FClear.N/A79%29.87 "HgN/A
7:53 PM69 °FScattered clouds.9 mph76%29.85 "Hg10 mi
6:53 PM73 °FScattered clouds.16 mph66%29.82 "Hg10 mi
5:53 PM76 °FPartly sunny.16 mph60%29.84 "Hg10 mi
4:53 PM82 °FBroken clouds.18 mph51%29.83 "Hg10 mi
3:53 PM84 °FScattered clouds.14 mph46%29.84 "Hg10 mi
2:53 PM81 °FScattered clouds.13 mph49%29.85 "Hg10 mi
1:53 PM84 °FScattered clouds.12 mph40%29.87 "Hg10 mi
12:53 PM82 °FScattered clouds.9 mph42%29.89 "Hg10 mi
11:53 AM79 °FScattered clouds.8 mph51%29.91 "Hg10 mi
10:53 AM75 °FPassing clouds.6 mph57%29.92 "Hg8 mi
8:53 AM70 °FPartly sunny.No wind73%29.92 "Hg7 mi
7:53 AM68 °FOvercast.3 mph78%29.89 "Hg7 mi
6:53 AM68 °FOvercast.No wind78%29.89 "Hg7 mi
Weather by CustomWeather, © 2014

See weather overviewHow to use our weather pages